Lamar, CO

1:59 PM MST on December 12, 2019 (GMT -0700)
Lamar Municipal

Weather History for KLAA - November, 2019

Change the Weather History Date:

Tuesday, November 19, 2019

  Actual Average Record
Temperature  
Mean Temperature 46 °F 38 °F  
Max Temperature 64 °F 55 °F 84 °F (2007)
Min Temperature 27 °F 22 °F 7 °F (1937)
Degree Days  
Heating Degree Days 19 26  
Month to date heating degree days 459 429  
Since 1 July heating degree days 1029 896  
Cooling Degree Days 0 0  
Month to date cooling degree days 0 0  
Year to date cooling degree days 1406 1121  
Moisture  
Dew Point 27 °F    
Average Humidity 60    
Maximum Humidity 89    
Minimum Humidity 30    
Precipitation  
Precipitation 0.00 in 0.01 in 1.54 in (1975)
Month to date precipitation 0.01 0.30  
Year to date precipitation 7.96 14.72  
Sea Level Pressure  
Sea Level Pressure 29.77 in    
Wind  
Wind Speed 4 mph (West)    
Max Wind Speed 13 mph    
Max Gust Speed 16 mph    
Visibility 10 miles    
Events      
T = Trace of Precipitation, MM = Missing Value Source: NWS Daily Summary

Daily Weather History Graph

Daily Weather History Graph

Search for Another Location

Airport or City:

Astronomy

Nov. 19, 2019 Rise Set
Actual Time 6:35 AM MST 4:36 PM MST
Civil Twilight 6:07 AM MST 5:04 PM MST
Nautical Twilight 5:35 AM MST 5:36 PM MST
Astronomical Twilight 5:03 AM MST 6:07 PM MST
Moon 11:33 PM MST (11/19) 12:48 PM MST (11/19)
Length of Visible Light 10h 57m
Length of Day
10h 00m
Waning Gibbous, 51% of the Moon is Illuminated
Nov 19
Waning Gibbous
Nov 19
Last Quarter
Nov 26
New
Dec 3
First Quarter
Dec 11
Full

Hourly Weather History & Observations

Time (MST) Temp. Windchill Dew Point Humidity Pressure Visibility Wind Dir Wind Speed Gust Speed Precip Events Conditions
12:53 AM 33.1 °F - 26.1 °F 75% 29.89 in 10.0 mi Calm Calm - N/A   Clear
1:53 AM 32.0 °F 28.7 °F 26.1 °F 79% 29.87 in 10.0 mi ESE 3.5 mph - N/A   Clear
2:53 AM 28.9 °F 25.2 °F 24.1 °F 82% 29.84 in 10.0 mi North 3.5 mph - N/A   Clear
3:53 AM 30.9 °F 26.2 °F 26.1 °F 82% 29.83 in 10.0 mi NNE 4.6 mph - N/A   Clear
4:53 AM 34.0 °F 27.2 °F 28.0 °F 79% 29.83 in 10.0 mi East 8.1 mph - N/A   Clear
5:53 AM 32.0 °F 25.6 °F 27.0 °F 82% 29.85 in 10.0 mi East 6.9 mph - N/A   Clear
6:53 AM 27.0 °F - 24.1 °F 89% 29.85 in 10.0 mi Calm Calm - N/A   Clear
7:53 AM 36.0 °F 31.1 °F 28.9 °F 76% 29.84 in 10.0 mi NW 5.8 mph - N/A   Clear
8:53 AM 43.0 °F 39.5 °F 30.0 °F 60% 29.84 in 10.0 mi WNW 5.8 mph - N/A   Clear
9:53 AM 51.1 °F - 32.0 °F 48% 29.82 in 10.0 mi WNW 6.9 mph - N/A   Clear
10:53 AM 55.0 °F - 30.9 °F 40% 29.79 in 10.0 mi WNW 11.5 mph - N/A   Clear
11:53 AM 57.9 °F - 30.9 °F 36% 29.75 in 10.0 mi West 6.9 mph - N/A   Clear
12:53 PM 63.0 °F - 30.9 °F 30% 29.71 in 10.0 mi WSW 5.8 mph - N/A   Clear
1:53 PM 62.1 °F - 30.9 °F 31% 29.69 in 10.0 mi Calm Calm - N/A   Clear
2:53 PM 62.1 °F - 32.0 °F 32% 29.69 in 10.0 mi WSW 4.6 mph - N/A   Clear
3:53 PM 62.1 °F - 30.9 °F 31% 29.69 in 10.0 mi WSW 3.5 mph - N/A   Clear
4:53 PM 55.9 °F - 30.9 °F 39% 29.70 in 10.0 mi Calm Calm - N/A   Clear
5:53 PM 39.0 °F 36.8 °F 27.0 °F 62% 29.73 in 10.0 mi East 3.5 mph - N/A   Clear
6:53 PM 36.0 °F 30.3 °F 26.1 °F 67% 29.76 in 10.0 mi SSW 6.9 mph - N/A   Clear
7:53 PM 30.9 °F 26.2 °F 23.0 °F 72% 29.74 in 10.0 mi West 4.6 mph - N/A   Clear
8:53 PM 28.0 °F 21.7 °F 21.9 °F 78% 29.71 in 10.0 mi SSW 5.8 mph - N/A   Clear
9:53 PM 28.0 °F 24.2 °F 21.0 °F 75% 29.68 in 10.0 mi WSW 3.5 mph - N/A   Clear
10:53 PM 30.9 °F - 25.0 °F 79% 29.64 in 10.0 mi Calm Calm - N/A   Clear
11:53 PM 28.0 °F - 21.9 °F 78% 29.64 in 10.0 mi Calm Calm - N/A   Clear